Lander, WY

7:36 AM MST on February 22, 2017 (GMT -0700)
Hunt

Weather History for KLND - September, 2013

Change the Weather History Date:

Saturday, September 7, 2013

  Actual Average Record
Temperature  
Mean Temperature 72 °F 63 °F  
Max Temperature 88 °F 77 °F 92 °F (1959)
Min Temperature 55 °F 48 °F 30 °F (1898)
Degree Days  
Heating Degree Days 0 4  
Month to date heating degree days 0 22  
Since 1 July heating degree days 0 62  
Cooling Degree Days 7 2  
Month to date cooling degree days 64 15  
Year to date cooling degree days 742 460  
Growing Degree Days 22 (Base 50)    
Moisture  
Dew Point 51 °F    
Average Humidity 49    
Maximum Humidity 72    
Minimum Humidity 25    
Precipitation  
Precipitation 0.16 in 0.03 in 0.94 in (1894)
Month to date precipitation 0.17 0.16  
Year to date precipitation 8.03 9.04  
Snow  
Snow 0.00 in 0.10 in - ()
Month to date snowfall 0.0 0.2  
Since 1 July snowfall 0.0 0.2  
Since 1 September snowfall 0.0 0.2  
Snow Depth 0.00 in    
Sea Level Pressure  
Sea Level Pressure 29.99 in    
Wind  
Wind Speed 5 mph (WNW)    
Max Wind Speed 54 mph    
Max Gust Speed 66 mph    
Visibility 9 miles    
Events Rain , Thunderstorm    
T = Trace of Precipitation, MM = Missing Value Source: NWS Daily Summary

Daily Weather History Graph

Daily Weather History Graph

Search for Another Location

Airport or City:

Trip Planner

Search our weather history database for the weather conditions in past years. The results will help you decide how hot, cold, wet, or windy it might be!

Date:

Astronomy

Sep. 07, 2013 Rise Set
Actual Time 6:46 AM MDT 7:38 PM MDT
Civil Twilight 6:17 AM MDT 8:07 PM MDT
Nautical Twilight 5:43 AM MDT 8:41 PM MDT
Astronomical Twilight 5:07 AM MDT 9:16 PM MDT
Moon 9:08 AM MDT (9/7) 8:33 PM MDT (9/7)
Length of Visible Light 13h 49m
Length of Day
12h 52m
Waxing Crescent, 5% of the Moon is Illuminated
Sep 7
Waxing Crescent
Sep 12
First Quarter
Sep 19
Full
Sep 26
Last Quarter
Oct 4
New

Hourly Weather History & Observations

Time (MDT) Temp. Dew Point Humidity Pressure Visibility Wind Dir Wind Speed Gust Speed Precip Events Conditions
12:53 AM 66.0 °F 50.0 °F 56% 29.97 in 10.0 mi West 8.1 mph - N/A   Clear
1:53 AM 66.0 °F 48.9 °F 54% 29.99 in 10.0 mi WNW 8.1 mph - N/A   Clear
2:53 AM 64.0 °F 48.9 °F 58% 29.97 in 10.0 mi West 4.6 mph - N/A   Clear
3:53 AM 62.1 °F 48.9 °F 62% 29.99 in 10.0 mi ESE 4.6 mph - N/A   Clear
4:53 AM 57.9 °F 48.0 °F 70% 30.01 in 10.0 mi Calm Calm - N/A   Clear
5:53 AM 59.0 °F 46.9 °F 64% 29.97 in 10.0 mi ENE 6.9 mph - N/A   Clear
6:53 AM 61.0 °F 48.0 °F 62% 29.99 in 10.0 mi SSW 3.5 mph - N/A   Clear
7:53 AM 62.1 °F 48.9 °F 62% 30.03 in 10.0 mi Calm Calm - N/A   Clear
8:53 AM 64.9 °F 48.9 °F 56% 30.02 in 10.0 mi NNW 3.5 mph - N/A   Clear
9:53 AM 73.0 °F 48.0 °F 41% 30.00 in 10.0 mi SSE 3.5 mph - N/A   Clear
10:53 AM 75.9 °F 48.0 °F 37% 29.99 in 10.0 mi SE 3.5 mph - N/A   Clear
11:53 AM 81.0 °F 48.0 °F 31% 29.98 in 10.0 mi Variable 3.5 mph - N/A   Clear
12:53 PM 82.9 °F 48.0 °F 29% 29.95 in 10.0 mi NNW 6.9 mph - N/A   Clear
1:53 PM 84.0 °F 46.9 °F 27% 29.91 in 10.0 mi WNW 6.9 mph - N/A   Clear
2:53 PM 86.0 °F 46.9 °F 26% 29.89 in 10.0 mi NNW 8.1 mph - N/A   Partly Cloudy
3:53 PM 84.9 °F 48.9 °F 29% 29.86 in 10.0 mi NW 9.2 mph - N/A   Clear
4:53 PM 84.0 °F 46.9 °F 27% 29.86 in 10.0 mi North 10.4 mph - N/A   Clear
5:40 PM 82.4 °F 46.4 °F 28% 30.06 in 10.0 mi NW 9.2 mph - N/A Thunderstorm Partly Cloudy
5:53 PM 82.9 °F 48.0 °F 29% 29.86 in 10.0 mi NW 5.8 mph - N/A Thunderstorm Partly Cloudy
6:23 PM 64.4 °F 55.4 °F 73% 30.12 in - SSE 24.2 mph 39.1 mph 0.01 in Rain , Thunderstorm Thunderstorms and Rain
6:31 PM 64.4 °F 55.4 °F 73% 30.12 in 1.5 mi Variable 5.8 mph 32.2 mph 0.06 in Rain , Thunderstorm Thunderstorms and Rain
6:41 PM 64.4 °F 55.4 °F 73% 30.09 in 3.0 mi ENE 15.0 mph - 0.11 in Rain , Thunderstorm Light Thunderstorms and Rain
6:53 PM 66.0 °F 55.9 °F 70% 29.93 in 10.0 mi East 8.1 mph - 0.11 in Thunderstorm Scattered Clouds
7:16 PM 64.4 °F 55.4 °F 73% 30.10 in 10.0 mi WSW 10.4 mph - N/A   Clear
7:53 PM 66.9 °F 55.0 °F 66% 29.93 in 10.0 mi West 10.4 mph - N/A   Scattered Clouds
8:53 PM 66.0 °F 55.0 °F 68% 29.96 in 10.0 mi Calm Calm - 0.00 in Rain Light Rain
9:12 PM 64.4 °F 57.2 °F 77% 30.16 in 6.0 mi SSW 4.6 mph - 0.02 in Rain , Thunderstorm Light Thunderstorms and Rain
9:30 PM 66.2 °F 55.4 °F 68% 30.16 in 7.0 mi WNW 4.6 mph - 0.05 in Rain Light Rain
9:53 PM 64.0 °F 57.0 °F 78% 29.97 in 10.0 mi ESE 3.5 mph - 0.05 in   Partly Cloudy
10:53 PM 64.9 °F 55.0 °F 70% 29.97 in 10.0 mi South 5.8 mph - 0.00 in Rain Light Rain
11:53 PM 64.9 °F 54.0 °F 68% 29.95 in 10.0 mi Calm Calm - 0.00 in   Clear